Theta_e
270 270 270 270 270 269 269 269 269 270 269 270 269 269 269 268 268 268 268 267 267 267 266 267 266 266 266 266 266 267 267 267 267 267 267 267 268 268 268 268 268 268 269 269 270 270 270 270 270 271 271 271 271 271 272 272 273 273 273 273 272 273 273 271 271 271 274 276 275 274 274 275 272 272 271 272 274 275 279 275 276 275 276 276 277
270 270 271 270 270 270 269 270 269 269 269 269 268 268 268 267 267 267 267 266 267 266 266 266 266 266 265 265 265 266 266 266 266 266 265 266 266 267 266 266 266 267 267 267 268 268 268 267 268 269 269 269 269 269 270 271 271 271 271 271 271 271 273 272 270 270 269 273 272 275 273 274 272 273 271 271 271 272 273 274 275 274 274 275 275
270 270 270 270 269 270 269 269 269 269 268 268 268 268 267 267 267 266 266 266 266 266 266 265 265 265 265 265 265 265 265 265 265 265 265 265 264 265 265 265 265 265 265 265 266 266 266 266 266 267 268 267 268 268 269 269 270 270 270 271 270 271 272 272 271 269 269 270 272 271 273 273 272 271 273 271 270 270 270 271 273 274 274 274 274
269 269 269 269 269 269 268 268 268 268 267 267 267 267 266 266 266 265 266 265 265 265 265 265 265 264 264 264 264 264 264 264 264 264 264 264 263 263 264 264 264 264 264 264 264 265 265 265 265 266 267 266 266 267 268 269 269 269 269 270 270 270 271 272 272 270 269 269 270 270 271 271 270 273 273 273 272 272 271 271 271 271 272 274 274
268 268 268 267 268 267 267 267 267 267 266 266 266 266 266 265 265 265 265 264 264 264 264 264 264 263 263 263 263 263 264 264 263 263 263 263 263 263 263 263 263 263 264 264 265 264 265 265 265 266 266 266 266 266 267 268 268 269 268 269 269 270 270 271 270 271 269 268 268 270 270 270 271 271 272 270 270 270 269 270 270 271 271 272 273
267 267 267 266 266 266 266 266 265 265 265 265 265 265 265 264 264 264 264 262 263 263 263 263 263 262 262 263 263 263 263 263 263 262 263 263 263 263 263 262 262 263 263 264 264 264 264 265 265 266 266 265 265 266 267 267 268 268 268 269 269 269 269 269 270 269 269 268 268 267 269 268 268 269 270 270 269 268 269 269 270 269 270 270 272
266 265 265 265 265 265 265 265 265 264 264 263 263 263 262 263 262 262 262 261 261 261 261 261 261 262 261 262 261 262 262 261 261 261 261 261 261 261 261 262 263 263 263 264 264 264 265 265 265 266 266 266 266 266 266 266 266 266 267 268 269 269 269 269 269 269 268 268 267 268 267 268 268 267 269 270 269 269 267 267 267 268 269 268 269
264 264 264 264 264 264 264 264 263 263 262 262 262 261 261 261 261 261 261 260 260 260 260 260 260 260 260 260 260 260 260 260 260 260 260 260 260 260 261 262 263 264 264 265 265 265 265 265 265 265 265 265 265 265 266 265 266 266 267 267 267 267 266 267 268 268 268 268 268 267 268 268 268 268 269 269 267 266 267 267 266 267 267 268 269
263 263 263 263 263 263 262 263 262 262 261 261 260 260 260 260 260 260 260 259 259 259 259 259 258 258 259 259 259 259 258 258 259 259 259 260 261 262 263 264 264 264 263 263 263 264 264 264 264 264 265 266 267 267 268 268 267 266 267 267 267 267 267 267 266 266 266 266 265 266 265 265 265 265 264 265 265 265 267 267 266 267 267 267 269
262 262 261 262 262 262 261 261 261 261 260 259 259 259 259 259 259 258 259 258 258 258 257 258 258 257 257 257 258 258 258 258 260 262 263 263 264 264 264 264 263 263 263 263 263 264 264 264 265 266 266 266 266 266 267 268 268 268 268 268 267 267 265 265 264 264 264 263 263 264 263 263 264 264 264 264 266 266 265 265 264 265 266 265 266
261 261 260 262 261 261 260 260 260 259 259 259 259 259 259 258 258 258 257 257 257 258 257 257 257 257 257 257 257 257 257 258 261 266 267 268 265 264 264 264 264 264 264 264 263 263 262 262 262 263 263 263 263 264 265 266 267 267 268 269 268 267 264 264 263 264 263 263 263 263 263 262 263 265 264 265 266 265 265 266 266 266 264 264 262
260 260 261 261 260 259 259 259 258 258 258 258 258 258 258 257 257 257 256 256 257 257 256 256 256 256 256 256 256 256 256 259 264 265 267 267 266 264 264 264 264 264 263 262 261 259 258 258 259 260 260 260 261 262 262 263 264 265 266 267 268 268 268 266 264 263 263 262 261 262 262 261 262 263 262 263 263 264 264 264 263 263 262 262 263
259 259 260 259 258 258 258 257 257 257 257 257 257 257 256 256 256 255 255 256 256 255 255 255 255 255 255 255 255 255 255 258 263 265 266 267 267 266 264 264 263 261 261 260 259 257 257 257 258 258 258 261 261 259 258 259 262 263 264 266 266 266 266 267 267 265 262 260 260 260 260 260 261 261 263 262 264 262 262 262 262 262 262 261 262
259 259 258 258 257 257 256 256 256 256 256 256 256 255 255 255 255 255 255 255 255 254 254 254 255 254 254 254 254 254 254 257 263 264 265 266 267 266 263 262 261 259 259 258 257 257 257 257 257 257 257 258 258 258 257 258 258 258 258 260 259 260 264 265 264 264 264 260 259 258 259 259 259 261 262 263 261 260 260 260 261 261 261 261 263
258 258 256 257 256 256 255 255 255 255 255 255 254 254 254 254 255 255 254 254 254 253 253 253 253 254 253 254 253 253 254 258 262 264 265 265 266 265 262 260 259 258 258 257 257 257 257 256 256 256 257 257 258 259 258 258 258 258 257 257 257 256 255 254 254 254 257 256 258 258 259 260 259 260 261 262 262 262 263 262 263 263 264 265 265
257 256 255 255 255 255 254 254 254 253 253 253 253 253 253 253 253 254 254 253 253 254 253 253 253 253 253 253 252 252 253 259 262 263 264 264 265 261 260 258 257 258 258 258 256 256 256 256 256 256 257 257 259 261 261 261 260 259 258 258 258 256 253 259 264 266 263 262 262 261 262 263 266 265 265 265 265 265 265 263 262 261 261 261 260
255 254 254 254 254 254 253 253 252 252 252 252 251 252 252 253 253 253 252 252 253 252 252 252 253 252 252 252 252 252 253 255 260 261 262 264 263 260 259 259 259 259 258 257 257 257 256 256 255 256 257 257 259 261 264 263 262 262 261 260 258 254 252 253 262 265 266 267 267 268 268 268 268 268 268 268 265 265 261 258 257 259 258 257 258
254 253 253 253 253 252 253 252 251 251 251 250 251 251 252 252 252 253 252 251 251 252 252 252 252 252 252 251 252 252 252 254 256 260 262 263 261 259 259 258 257 257 257 257 256 255 256 259 260 258 257 257 260 262 266 264 262 262 261 257 255 253 251 252 251 254 264 264 264 265 265 264 264 264 264 265 265 262 258 255 257 258 256 257 257
252 252 252 252 252 252 251 251 250 250 249 250 250 250 251 251 252 252 252 251 251 252 252 251 251 251 251 251 253 252 251 252 254 259 261 262 260 259 258 258 257 257 257 256 255 255 255 257 259 259 259 260 262 265 265 264 260 258 257 256 253 251 254 253 253 251 252 252 253 255 255 257 256 255 257 259 260 260 257 256 257 256 255 256 257
251 252 251 251 251 251 251 250 250 249 249 249 250 250 251 250 251 251 251 251 250 251 251 250 250 250 251 251 251 251 251 251 253 258 260 261 261 259 258 257 256 256 255 255 254 253 254 254 256 259 261 261 263 265 265 264 257 257 257 255 254 254 257 254 255 254 250 250 250 250 252 253 253 254 254 255 256 257 258 257 256 256 256 256 257
251 250 250 250 250 249 249 249 248 249 249 249 249 249 249 250 250 250 249 249 249 249 249 249 249 249 250 250 250 250 251 251 251 255 258 260 260 257 256 256 255 255 254 254 255 254 255 254 253 258 259 261 261 264 264 262 261 257 255 254 255 259 258 252 254 256 249 251 251 251 251 252 252 253 253 254 255 256 256 257 257 257 256 256 256
249 249 249 249 248 248 248 248 248 248 248 248 248 248 249 250 249 248 248 248 248 247 248 248 248 248 248 249 249 249 250 252 251 253 255 258 256 256 255 255 256 255 254 254 254 253 255 255 253 257 259 260 261 263 262 262 260 258 259 262 261 259 256 253 250 249 247 248 249 249 249 250 250 251 253 254 254 256 256 255 255 255 255 256 256
248 248 248 247 247 247 247 247 247 247 247 248 248 248 248 248 247 248 247 247 246 246 246 247 246 246 246 247 248 248 248 250 252 251 253 254 256 254 255 255 257 255 253 253 253 253 255 254 255 258 259 260 261 261 261 258 257 258 262 261 258 257 254 249 251 247 246 246 247 248 248 248 250 251 252 252 253 253 254 255 254 255 255 256 257
247 246 246 246 245 246 246 246 246 246 247 247 247 247 246 247 247 247 247 246 246 246 246 246 245 245 245 246 247 248 248 248 250 251 252 253 254 256 255 255 255 254 254 252 253 253 254 254 256 259 258 260 261 260 258 257 256 258 257 257 256 254 249 248 246 246 248 247 247 246 247 247 249 249 251 252 253 253 254 254 254 254 254 255 256
246 245 244 244 244 245 245 245 245 246 247 247 245 246 245 246 245 246 246 246 245 245 246 245 245 245 245 245 246 247 247 247 247 250 251 252 253 254 254 254 254 254 252 252 253 253 255 257 258 258 257 257 257 255 254 254 256 255 255 255 253 246 247 245 246 245 246 246 247 247 247 249 249 251 252 252 253 253 253 253 253 254 254 255 255
244 244 243 244 244 244 243 244 245 245 245 246 245 245 245 245 245 245 245 245 245 245 245 245 245 245 245 245 245 246 247 246 247 247 249 250 251 252 253 253 253 253 253 252 254 255 255 256 257 256 254 254 253 251 250 252 254 254 254 252 244 246 245 245 245 245 245 246 247 248 248 248 249 250 251 252 251 250 251 252 252 252 253 253 253
243 243 243 243 243 243 243 244 245 245 244 245 245 245 245 245 245 245 245 245 246 245 245 245 245 245 245 245 246 247 246 246 246 246 246 246 247 249 250 250 252 252 251 251 252 251 252 252 252 254 253 253 253 252 251 251 249 248 245 244 245 244 245 245 245 245 246 246 247 247 247 248 249 250 249 249 249 250 251 252 251 251 252 252 252
243 242 242 243 243 243 243 245 245 244 244 244 244 244 244 245 244 245 245 245 245 245 245 245 245 245 245 246 247 247 246 245 245 246 246 247 248 249 250 250 249 249 249 250 251 250 249 251 249 246 246 246 246 243 243 244 245 246 243 243 243 245 249 251 250 245 244 245 245 246 247 247 247 248 249 248 249 249 251 251 251 251 252 251 250
242 241 242 242 242 243 243 243 243 243 243 243 244 244 243 244 245 245 246 246 246 245 245 245 246 246 246 246 246 245 246 246 247 251 250 251 251 250 249 250 250 250 252 254 254 249 247 245 244 246 243 245 244 242 242 242 243 243 241 244 242 243 243 242 243 245 245 245 245 246 246 246 246 247 248 248 248 249 250 249 250 249 251 249 250
241 241 241 241 241 242 243 243 243 244 243 242 242 243 246 247 247 245 245 248 248 249 249 247 247 247 246 247 247 246 246 247 250 251 251 252 251 251 251 252 252 252 253 254 253 245 243 241 242 241 243 240 241 242 242 241 241 241 242 246 245 243 244 244 243 245 246 245 246 245 245 246 246 246 247 247 248 249 250 252 250 250 249 248 248
240 240 241 240 242 243 242 242 243 243 242 242 241 242 242 244 247 247 247 247 248 248 249 249 249 249 248 246 247 249 249 249 250 250 251 251 251 251 251 251 252 252 253 252 247 245 243 243 241 239 241 240 241 241 242 241 242 241 241 241 241 244 245 243 242 245 246 245 245 245 246 245 246 246 247 247 248 249 248 249 249 249 248 248 248
239 239 239 240 242 242 242 243 243 242 241 241 241 241 241 241 242 245 247 247 247 248 248 248 248 248 248 248 247 246 248 249 249 249 250 250 250 250 251 252 252 253 253 252 245 243 240 240 240 239 240 240 241 242 241 240 240 240 240 241 242 242 243 243 244 242 243 244 244 245 245 245 245 246 247 247 249 248 247 248 248 248 248 248 248
238 238 239 241 241 242 242 242 242 241 240 240 241 241 241 241 240 240 243 246 246 246 246 247 247 247 247 247 248 248 248 248 248 249 249 249 249 250 251 251 252 252 250 245 240 241 239 239 239 239 239 239 238 238 239 239 240 240 239 240 242 242 242 243 244 242 244 244 245 244 245 245 246 246 247 247 247 246 247 247 247 247 247 247 248
238 239 240 241 240 241 241 241 240 240 240 240 241 241 241 241 240 240 240 240 242 244 245 246 246 246 246 247 247 247 248 248 248 248 248 249 249 250 249 248 250 250 248 242 239 238 239 239 240 239 238 240 239 240 240 239 240 240 240 240 241 240 241 241 240 242 243 244 243 244 245 244 245 245 245 246 246 246 246 247 247 246 247 247 248
238 240 242 242 240 240 240 240 240 240 240 240 240 240 240 241 241 241 240 239 239 239 240 241 244 245 244 245 246 246 247 247 247 247 248 248 248 248 247 244 243 243 244 241 241 239 239 239 238 239 238 238 239 240 239 238 239 240 240 241 240 241 241 242 242 242 243 242 243 242 244 245 244 245 246 245 245 245 245 246 246 247 247 248 248
238 238 239 240 240 240 240 239 239 239 239 240 241 241 241 240 240 240 240 240 239 239 239 240 240 243 245 245 245 245 246 246 247 247 247 247 247 247 242 241 241 241 241 240 239 240 240 239 239 238 237 237 238 238 239 240 240 240 239 239 241 241 241 241 242 242 243 242 243 244 245 243 244 244 244 244 244 245 245 246 246 248 249 249 249
238 238 239 240 240 239 239 239 239 240 242 242 240 239 240 240 240 240 239 239 239 239 239 239 239 240 242 242 244 245 245 246 246 246 246 246 246 244 239 240 240 240 241 240 240 240 239 238 237 236 237 238 238 239 240 239 240 240 241 242 240 240 240 240 242 243 243 243 242 242 241 242 242 243 244 244 245 245 246 247 247 248 249 249 250
238 239 239 240 240 240 239 239 240 242 241 240 239 239 239 239 239 239 239 238 239 239 238 238 240 238 238 239 243 242 243 245 245 244 244 243 242 241 240 240 240 239 239 239 239 238 238 239 237 237 239 238 239 240 240 240 240 240 240 240 241 241 244 244 244 242 242 241 241 241 242 242 243 243 245 244 245 245 246 247 247 246 247 248 249
237 241 242 243 243 241 239 240 240 240 240 240 239 239 239 239 239 238 238 238 237 237 238 238 237 238 239 239 239 242 243 240 240 239 240 239 239 238 238 238 237 239 239 238 238 238 236 238 240 238 239 238 240 240 240 240 240 240 240 240 240 240 241 240 240 240 240 240 241 241 241 242 242 243 244 244 244 245 245 246 246 247 247 247 248
239 238 240 243 241 242 241 241 240 239 240 239 239 239 238 238 238 238 237 237 237 238 238 238 238 238 239 239 240 242 241 240 239 239 239 239 239 239 238 238 238 237 239 239 238 237 237 239 239 239 239 239 240 240 240 240 240 240 240 240 240 240 241 240 240 241 240 241 241 242 242 242 243 243 243 243 244 245 246 246 247 247 247 248 249
238 239 241 241 242 241 240 240 239 239 239 239 239 237 237 239 239 239 237 237 238 238 238 238 238 238 239 242 243 243 241 239 239 238 238 239 239 239 239 238 239 239 239 238 239 239 238 239 239 239 240 240 240 240 240 240 240 240 240 240 241 241 241 241 241 241 241 241 242 242 243 243 243 243 243 244 247 247 246 247 247 247 247 248 248
238 238 239 239 240 239 239 239 239 240 239 239 238 238 239 239 238 238 238 238 238 238 238 238 238 239 241 243 243 243 241 237 238 238 238 238 238 238 239 239 239 238 239 239 239 239 239 240 240 240 240 240 240 240 240 240 240 240 240 240 240 241 241 241 241 241 241 242 242 242 242 244 245 245 246 247 245 245 245 245 245 246 246 247 247
239 239 239 239 239 239 239 239 239 237 238 238 238 240 240 239 237 238 238 238 238 238 238 238 238 239 239 241 242 242 239 237 239 238 238 238 239 239 239 239 239 239 239 239 240 239 239 239 240 240 240 241 240 241 241 240 241 241 241 240 240 240 240 241 241 242 242 242 242 243 243 243 244 243 243 244 244 245 244 245 245 245 246 246 246
238 239 239 239 239 239 239 238 238 239 238 240 240 239 239 238 237 237 237 237 237 238 238 238 238 238 239 239 240 239 237 238 237 237 238 239 239 239 239 239 239 239 239 240 240 240 240 240 240 241 241 241 241 241 241 241 241 241 241 241 241 242 242 242 242 242 242 242 242 243 243 244 244 244 244 245 243 243 244 244 244 244 245 245 246
237 238 238 238 238 238 239 238 239 238 239 239 237 238 238 236 237 237 238 237 238 238 238 238 239 238 238 238 238 238 238 238 238 239 238 238 239 239 239 239 239 240 240 241 241 241 241 241 241 241 241 241 242 242 242 243 243 243 243 243 242 242 242 243 243 244 244 244 244 244 245 245 244 243 244 244 244 244 244 244 244 245 245 245 244
237 238 238 238 238 239 239 238 239 238 238 238 237 237 237 237 237 237 238 238 238 238 238 238 238 238 239 238 238 239 239 238 239 239 240 240 240 240 240 240 241 241 241 242 242 242 242 242 242 242 242 242 243 243 244 244 244 244 244 244 244 244 245 245 245 245 245 245 245 245 245 245 244 245 245 244 244 244 244 244 244 244 244 244 245
237 237 239 238 238 238 239 239 238 239 238 238 238 238 238 238 238 238 238 239 239 239 238 238 238 238 239 239 239 239 240 240 240 240 240 240 240 241 241 241 242 242 242 243 243 243 243 243 243 243 243 243 243 244 244 244 245 245 245 246 246 246 246 246 246 246 246 246 246 246 245 245 244 244 244 244 244 244 244 244 244 244 244 244 245
238 238 237 239 238 238 238 238 238 239 238 238 238 238 238 238 238 238 238 238 238 238 239 239 239 239 239 239 240 240 240 240 241 241 241 241 241 242 242 242 242 243 243 243 243 244 244 243 243 243 243 244 244 244 244 245 245 245 246 246 246 246 247 247 247 247 247 247 246 246 245 245 245 244 244 244 243 243 243 243 244 244 244 244 245
238 238 238 238 238 238 238 238 238 237 237 237 237 237 238 237 238 238 238 238 238 239 239 239 239 239 240 240 240 240 241 241 241 241 241 242 242 242 242 243 243 243 243 243 243 243 244 244 244 244 244 244 244 245 245 245 246 246 246 246 247 248 248 248 248 248 248 248 247 247 246 245 244 244 244 244 244 244 244 244 243 244 244 244 245
238 238 238 238 238 238 238 237 237 237 237 237 237 237 237 237 237 238 238 238 238 239 239 239 239 240 240 240 240 240 241 241 241 241 241 242 242 242 243 243 243 243 243 243 243 244 244 244 244 244 244 245 245 245 246 246 246 247 247 247 248 248 249 249 249 249 248 247 247 246 245 245 244 244 244 244 244 244 243 244 244 245 245 245 245
239 239 238 238 238 238 237 237 237 237 237 237 237 237 237 237 237 238 238 238 238 239 239 239 240 240 240 240 241 241 241 241 241 242 242 242 242 243 243 243 243 243 243 243 244 244 244 244 245 245 245 245 246 246 246 247 247 247 248 248 249 249 249 248 247 247 247 247 247 246 246 245 245 244 244 244 244 244 245 245 245 245 246 246 246
Wind_Speed
9 8 8 8 8 8 8 7 8 8 8 9 8 8 7 7 7 7 6 7 7 8 9 9 9 9 9 9 9 10 10 10 9 9 9 9 9 8 8 8 8 7 7 8 7 7 6 5 5 6 7 6 6 5 5 5 5 4 2 2 2 2 1 2 6 9 9 4 2 3 2 1 3 1 2 4 5 5 5 3 4 4 4 5 5
7 6 7 7 8 8 8 7 7 8 8 8 8 7 7 7 7 7 8 7 8 7 8 8 7 9 8 8 9 9 9 9 9 9 9 9 9 8 9 10 9 8 7 7 8 7 7 7 7 7 7 6 6 6 6 5 6 5 4 4 3 4 2 2 4 6 10 8 6 3 2 2 4 3 2 4 5 4 4 6 4 3 4 5 4
7 6 7 7 6 6 5 5 6 6 7 7 7 7 7 7 7 7 7 7 8 8 9 10 9 9 8 8 8 8 8 8 8 8 8 9 9 9 9 9 9 9 9 8 8 8 7 7 7 7 6 7 7 6 5 5 5 5 6 5 4 5 4 4 5 7 9 10 7 6 5 1 2 3 4 2 4 4 4 5 5 5 3 4 5
8 9 6 8 7 5 5 4 5 4 4 3 4 4 5 6 6 7 7 6 8 8 9 10 9 10 10 10 10 10 9 8 8 8 8 9 9 9 9 9 9 8 8 8 8 7 7 8 7 7 7 8 7 6 5 5 5 5 6 5 6 6 6 4 5 6 6 10 9 7 4 4 3 4 4 4 5 6 5 5 4 5 6 7 6
9 10 8 9 9 6 5 3 2 2 1 1 3 4 4 4 5 6 6 7 7 7 8 9 8 9 9 10 11 10 10 10 10 9 8 8 8 9 9 9 9 9 8 8 9 8 8 8 8 7 7 8 7 6 6 7 6 6 7 6 6 6 6 6 6 6 7 9 10 8 6 5 4 5 5 6 4 4 4 5 5 6 6 6 6
9 10 9 10 9 9 7 6 4 3 2 4 4 4 4 5 5 5 6 7 7 7 8 7 8 9 9 9 9 9 9 8 8 9 9 9 9 9 8 8 8 8 8 8 8 8 8 9 9 9 8 8 8 8 7 8 8 7 7 7 7 7 7 7 6 6 7 8 9 10 8 7 6 5 5 5 7 8 8 7 6 5 6 8 8
9 9 10 10 10 10 10 8 6 5 5 6 6 6 6 7 7 7 6 7 6 7 7 8 7 7 8 8 8 8 9 8 8 8 8 8 8 9 9 9 8 8 7 8 7 7 8 8 8 8 8 9 10 10 10 9 8 9 9 9 8 7 6 6 6 6 6 7 6 7 8 7 6 7 5 4 5 6 6 6 7 4 5 5 8
9 9 9 9 9 10 8 6 7 6 6 6 7 7 7 6 6 6 5 6 5 6 6 7 7 6 8 7 8 7 7 7 7 7 7 7 8 9 10 10 9 8 7 6 7 7 8 8 8 8 9 9 9 10 10 9 9 9 8 8 8 9 8 8 7 7 7 5 4 3 4 5 4 2 2 4 3 3 3 3 6 7 6 4 5
9 9 9 9 9 7 6 6 6 7 7 7 7 7 7 6 6 7 6 6 5 6 6 5 6 7 7 7 7 6 6 6 6 7 8 10 9 10 10 8 9 10 10 10 9 9 8 8 8 8 9 13 17 17 16 15 11 9 9 9 9 10 9 7 6 6 5 4 5 4 4 4 5 4 4 4 4 5 6 8 9 10 9 9 9
8 9 9 9 7 7 7 7 7 7 7 8 7 8 7 7 7 6 6 5 5 5 4 6 7 7 7 8 7 7 7 6 8 17 17 12 11 9 10 10 11 10 9 10 9 8 6 5 7 14 16 17 16 17 17 17 16 11 8 6 6 5 2 2 2 2 2 2 4 4 5 5 5 5 6 5 6 6 8 8 10 10 11 11 11
9 9 10 7 6 7 7 8 8 8 7 7 7 8 8 6 6 6 5 6 7 7 8 9 8 8 9 9 9 8 8 7 15 21 21 22 16 11 10 10 10 10 9 7 7 8 7 9 9 11 13 14 14 19 19 19 18 19 18 15 11 5 2 3 2 3 3 3 4 4 4 6 6 6 5 6 5 6 7 7 8 8 8 9 10
9 9 9 6 8 8 8 8 9 8 8 8 9 8 7 6 6 5 5 7 6 7 8 8 9 9 9 8 8 8 8 11 22 21 23 22 19 13 9 9 8 7 6 7 6 4 5 6 6 7 8 10 12 12 14 18 19 19 20 18 14 11 8 5 4 3 3 2 3 4 5 4 6 5 6 7 7 8 8 8 9 10 11 12 11
8 9 6 7 7 8 7 8 8 9 9 10 9 8 8 8 8 6 7 6 6 7 8 9 9 8 8 9 9 9 8 13 21 22 22 22 22 18 9 8 7 6 7 7 6 5 5 7 8 7 6 12 11 9 11 11 15 18 18 20 16 14 12 11 11 5 2 3 4 5 4 4 6 6 6 5 5 8 8 10 9 9 10 10 10
8 7 6 7 7 8 8 9 10 10 10 11 10 10 10 10 8 6 6 7 7 7 8 8 8 8 8 9 9 9 8 13 23 23 23 23 23 19 10 9 8 7 8 7 6 7 8 7 6 7 7 6 7 9 8 9 10 10 9 9 8 9 9 8 5 5 4 3 4 5 5 5 5 7 8 6 7 9 9 11 10 11 10 12 12
7 5 7 7 7 8 9 9 10 10 11 11 11 11 11 10 10 8 7 8 8 8 8 8 8 8 8 8 9 10 9 18 22 23 22 23 23 20 10 9 9 9 9 7 9 8 7 7 6 7 8 7 7 10 10 10 10 9 9 8 9 7 6 4 4 4 4 4 5 7 7 6 6 7 8 8 8 8 10 11 11 12 12 13 12
5 7 7 8 8 9 10 10 10 11 12 11 11 12 11 10 9 8 8 7 6 7 7 7 8 8 9 9 9 10 9 19 21 23 24 23 24 13 9 9 9 10 10 7 5 5 6 6 6 7 8 9 10 16 17 13 11 11 11 11 9 7 4 6 7 8 7 6 6 7 7 7 9 7 7 7 5 6 7 7 8 9 10 9 8
6 8 8 9 9 9 9 9 9 10 11 11 11 11 11 10 9 7 7 7 8 7 8 7 7 8 9 9 9 10 10 15 21 23 23 23 17 9 9 8 7 8 8 7 8 6 5 5 6 7 8 9 12 19 20 19 13 13 11 10 7 1 2 4 5 6 9 12 12 13 15 17 18 19 20 22 16 12 7 8 9 9 8 10 10
7 7 8 9 8 8 8 8 9 10 10 10 11 11 10 8 8 7 7 8 8 8 7 8 7 7 8 9 9 10 10 13 20 22 23 22 18 11 8 8 8 9 7 6 4 4 5 11 11 9 9 9 15 20 20 16 12 13 12 5 2 2 2 3 5 5 7 9 11 14 15 16 18 19 19 20 21 14 5 7 8 7 8 9 10
7 8 8 8 8 8 8 9 9 10 9 10 10 11 10 9 8 8 7 7 7 7 7 8 8 7 7 8 13 12 9 11 17 21 23 21 17 9 8 8 8 8 8 5 5 5 6 7 12 12 10 12 18 17 18 12 3 4 5 6 2 2 3 4 2 4 6 6 7 7 9 10 9 9 10 17 17 13 6 6 7 7 8 8 9
9 8 9 9 8 9 9 9 10 10 11 11 10 10 10 9 9 9 8 7 6 7 7 8 9 8 7 7 8 8 9 9 11 22 21 21 21 12 8 8 8 8 6 7 7 5 6 5 7 10 13 14 15 16 16 8 7 4 3 3 1 4 2 5 3 5 4 3 4 4 5 6 6 7 7 8 9 8 9 7 6 6 7 8 9
10 10 10 9 9 9 8 8 10 10 10 10 10 9 8 9 9 8 7 7 7 8 9 8 8 8 7 7 7 7 8 9 11 20 21 22 21 17 11 10 10 9 7 8 6 5 5 5 3 7 11 13 14 15 13 11 8 5 3 1 1 3 8 4 5 7 4 4 4 5 5 5 6 6 6 7 7 7 7 8 7 6 7 8 9
9 10 10 8 8 8 9 9 10 10 10 10 9 9 8 7 7 7 7 7 8 9 9 8 8 7 6 6 6 7 8 13 10 14 19 22 19 20 12 11 12 9 9 8 7 5 5 5 5 8 12 12 14 13 12 12 12 5 7 10 12 10 5 3 2 2 3 3 5 4 5 5 5 6 6 6 6 8 7 6 5 5 6 6 8
9 8 8 7 8 9 9 10 10 9 10 10 10 8 8 8 8 8 8 8 8 9 9 9 7 7 6 6 5 7 7 8 14 11 16 19 21 17 20 14 17 11 8 8 9 8 7 7 7 10 10 10 8 12 14 14 9 8 14 14 10 8 5 1 2 2 2 3 3 5 4 5 6 6 6 6 6 6 7 8 9 9 10 10 10
8 7 7 8 9 10 10 10 10 9 10 9 8 10 10 9 8 8 8 8 8 8 8 7 6 6 7 7 6 7 7 7 10 15 13 18 19 19 16 18 17 10 10 6 7 8 8 7 8 11 9 12 15 14 13 11 8 13 13 12 10 7 3 5 2 2 3 4 4 5 5 5 5 5 5 6 7 8 9 9 9 10 10 10 10
7 7 7 8 9 9 9 9 9 8 8 9 9 9 9 9 9 8 8 8 8 8 8 6 6 6 6 7 8 8 8 8 8 10 16 16 18 18 19 19 18 17 10 7 8 7 12 17 16 12 8 8 10 10 9 9 12 10 10 9 7 3 5 4 3 3 5 5 5 5 5 5 5 5 7 7 8 8 7 7 7 8 9 10 10
7 8 8 9 10 10 9 9 8 8 9 8 7 7 8 9 8 8 8 8 8 8 7 6 5 6 7 7 8 8 8 7 8 8 8 10 11 15 18 17 17 18 17 11 16 17 17 16 11 6 5 5 4 4 5 5 10 10 10 8 3 5 3 6 4 4 5 5 5 5 5 5 5 6 7 7 7 7 7 8 7 8 7 8 8
8 8 9 9 9 9 9 8 8 8 7 7 6 7 7 8 8 8 8 8 8 7 6 6 6 7 8 8 8 7 6 6 7 7 7 7 7 8 8 7 13 14 10 9 9 9 9 6 1 4 3 5 6 5 5 6 6 6 5 5 5 4 4 3 4 4 4 5 6 5 5 6 5 6 7 6 7 7 6 8 7 8 7 7 8
9 9 10 9 8 8 8 12 11 7 7 7 7 8 8 8 8 8 8 9 9 9 8 8 8 8 8 9 9 8 7 6 6 7 7 6 6 7 7 8 8 8 8 9 9 7 3 2 2 1 2 3 5 4 4 4 4 5 5 4 4 5 5 7 6 3 4 4 5 5 5 5 6 6 7 6 7 7 7 7 7 8 6 7 7
9 8 9 8 8 8 7 7 7 7 6 6 6 7 8 8 9 8 8 8 9 10 9 9 9 7 7 8 8 8 8 7 7 12 14 15 14 10 8 8 8 7 10 15 14 3 1 1 3 4 4 3 3 4 4 4 4 5 4 5 4 6 5 3 5 5 5 5 5 6 7 6 7 6 7 7 7 7 7 7 6 6 7 6 7
7 8 8 7 8 7 7 7 7 6 7 7 7 7 11 15 12 10 9 15 19 19 15 10 10 9 8 7 7 9 8 9 17 20 19 18 18 19 18 19 19 16 18 21 6 3 2 2 2 2 2 3 3 3 3 3 5 5 5 4 5 4 4 3 3 5 5 5 5 6 6 6 7 6 6 7 7 7 7 7 7 7 6 7 8
7 7 7 7 9 8 7 7 7 6 7 7 7 8 7 7 14 18 17 17 17 19 18 19 20 18 13 9 10 18 18 18 18 18 19 19 19 20 20 19 21 21 22 7 4 4 3 3 3 3 1 1 1 2 2 3 3 4 5 4 4 4 5 4 4 6 6 5 6 6 6 6 6 6 7 7 7 8 7 6 6 6 6 7 8
7 7 7 7 8 8 7 7 7 7 7 7 7 7 8 8 8 12 17 17 18 18 18 18 18 18 19 17 13 9 14 17 18 18 19 20 19 20 20 22 20 21 17 2 3 2 1 1 1 2 1 2 2 2 2 3 4 4 5 5 5 4 4 5 5 4 6 6 6 7 6 6 6 6 6 7 9 7 7 7 6 7 8 7 8
7 7 7 7 7 8 7 7 7 7 7 8 7 7 8 8 10 9 10 13 16 16 17 17 18 19 19 18 18 16 15 16 18 18 18 19 19 18 18 20 17 10 9 6 3 2 1 1 1 1 1 2 2 2 3 3 4 5 4 5 5 5 5 6 5 5 6 6 6 6 6 6 6 8 8 7 7 7 7 7 7 7 7 8 9
6 6 6 7 7 6 6 6 7 7 7 6 6 7 7 8 8 9 9 9 10 11 12 14 17 18 17 18 17 17 17 17 17 17 18 18 18 17 16 12 16 16 9 4 3 2 1 1 1 1 1 1 2 2 3 4 4 5 5 6 6 5 6 6 5 6 5 6 6 6 6 6 7 6 6 6 6 6 7 8 7 7 8 8 9
6 8 12 10 6 6 6 6 6 6 6 6 6 6 7 7 7 8 8 9 9 10 9 10 12 16 14 13 15 18 18 18 17 16 17 17 17 17 13 9 9 9 8 6 4 2 2 1 2 2 2 3 3 2 3 4 5 5 5 6 6 6 5 5 6 5 6 6 6 6 6 6 6 6 7 7 7 7 7 7 7 7 8 9 9
6 6 6 8 7 5 5 6 6 6 6 6 6 6 7 7 8 7 7 7 7 8 8 8 8 10 17 15 18 18 19 18 16 16 17 16 16 14 7 7 7 7 7 7 7 4 3 3 2 5 4 4 3 4 5 5 6 5 6 5 6 6 6 6 7 6 6 6 6 6 6 6 6 7 6 6 7 7 7 7 8 8 8 8 8
6 6 6 6 6 5 6 6 6 7 7 8 7 6 7 7 7 6 7 6 7 7 7 8 8 9 10 8 12 16 18 17 16 16 15 14 14 7 3 5 5 6 6 6 7 5 7 6 6 4 5 5 5 6 6 5 6 6 5 6 6 6 6 6 7 6 6 6 6 6 5 6 6 6 6 7 7 6 7 7 7 9 10 11 12
7 6 6 7 6 6 5 6 6 8 7 6 6 6 6 6 6 6 7 7 8 7 8 8 7 7 8 9 12 9 11 13 13 10 8 8 8 6 6 5 5 5 6 6 5 5 6 6 5 6 6 6 6 6 6 6 6 6 6 6 6 6 9 9 10 7 6 6 6 6 6 6 6 6 6 6 7 7 7 8 7 8 9 10 8
5 9 12 14 9 7 5 5 6 6 6 6 6 7 8 7 6 6 7 6 7 7 7 7 7 7 7 8 8 9 9 7 7 8 8 7 5 4 5 5 5 5 5 6 5 5 5 6 7 5 5 6 6 6 6 6 6 6 6 6 6 6 7 6 6 6 6 6 6 6 6 6 6 6 6 6 7 6 7 8 8 7 8 8 8
6 6 8 11 7 7 7 7 6 6 7 6 7 6 6 7 6 6 6 6 7 7 7 7 7 7 8 7 7 8 8 7 7 7 7 7 7 6 5 5 6 6 6 7 6 6 5 7 6 6 6 6 6 7 6 6 6 6 6 6 6 7 7 6 6 6 6 6 6 6 6 6 6 6 6 6 6 6 7 7 7 7 7 8 8
5 6 6 7 8 7 6 7 6 6 6 6 6 6 6 7 7 7 6 6 6 7 7 7 7 7 7 10 16 15 8 7 7 7 7 7 7 7 6 6 6 6 7 6 6 6 6 7 7 6 6 6 6 6 6 6 6 6 6 6 6 6 7 6 6 6 6 6 6 6 6 6 6 6 6 5 7 7 6 7 8 8 9 8 9
5 5 5 6 7 5 5 7 7 8 6 7 6 6 7 7 6 6 7 6 8 8 7 7 7 7 10 17 15 17 10 5 6 7 7 7 6 7 6 6 6 6 7 7 7 7 7 7 7 7 7 7 7 6 6 6 6 6 6 6 6 6 6 6 6 6 6 6 6 6 6 6 6 6 6 7 6 6 6 6 7 7 7 8 8
5 5 5 6 6 5 6 6 6 6 6 7 6 6 7 7 6 7 7 7 6 7 7 8 8 8 8 11 13 13 7 6 6 7 6 7 7 7 7 7 7 7 7 7 7 7 7 7 8 7 7 8 7 7 7 7 6 6 6 6 7 7 7 7 6 6 6 6 6 6 7 7 7 6 6 5 5 6 6 7 7 7 7 7 7
5 6 7 6 6 5 6 6 6 7 6 7 7 8 7 7 6 6 7 7 7 7 7 7 7 8 8 9 8 7 6 6 6 6 7 7 7 7 7 7 7 7 7 7 7 6 6 7 7 8 7 7 7 6 7 7 6 7 7 7 7 7 7 7 6 7 6 6 6 6 6 7 7 6 6 7 5 7 7 6 7 7 7 7 7
5 5 6 6 6 6 6 5 6 6 8 7 6 6 7 6 6 7 6 7 8 7 7 7 7 7 8 8 7 7 7 7 8 8 7 7 7 8 7 7 7 8 8 7 7 6 6 7 7 8 8 8 6 7 7 7 7 7 7 7 7 8 8 8 7 7 6 7 7 7 7 6 6 6 6 6 6 6 7 7 6 7 8 7 7
5 5 6 6 7 7 7 6 8 6 6 6 7 7 7 6 6 6 7 7 7 7 7 7 7 7 7 7 7 8 8 7 7 7 8 7 7 8 7 7 7 7 7 7 7 7 7 7 7 7 8 8 8 7 7 7 7 7 7 7 8 8 8 8 7 7 7 7 7 7 7 7 6 7 7 7 6 6 7 7 6 7 7 8 8
5 4 5 6 6 7 7 7 6 6 6 6 6 6 7 7 7 7 8 8 8 8 7 7 7 8 8 7 8 8 8 8 8 8 8 8 8 8 8 8 8 8 8 7 7 7 7 7 7 7 8 8 8 9 8 7 7 7 6 7 7 8 7 7 7 7 7 7 7 7 7 7 7 7 8 7 6 6 7 7 7 8 7 7 8
5 6 5 6 5 5 6 6 7 7 7 7 6 7 7 7 7 7 7 8 7 7 7 7 7 7 8 8 7 7 7 8 7 8 8 8 8 8 8 8 8 8 8 8 7 7 7 7 7 8 8 8 8 8 8 7 7 7 7 7 7 7 9 10 8 8 7 7 7 7 7 8 7 7 7 7 7 6 7 8 7 7 7 7 8
4 4 5 5 5 5 6 6 7 6 6 6 7 7 8 7 7 7 7 7 7 7 7 7 8 8 7 8 8 8 8 8 8 8 8 8 8 8 8 8 8 8 8 8 8 8 8 8 8 8 8 8 8 8 8 8 8 8 8 7 8 12 14 13 10 8 8 7 6 7 7 7 7 7 7 7 8 7 7 7 7 8 8 8 8
5 5 4 5 6 5 6 6 5 5 6 6 6 7 7 7 7 7 7 8 7 7 7 7 7 8 8 8 9 8 8 8 8 8 8 8 8 8 8 8 9 8 8 8 8 8 8 8 8 8 8 8 8 8 8 8 8 8 8 8 11 14 14 15 12 10 8 6 7 6 6 6 7 7 7 7 7 8 8 8 8 8 8 8 8
6 5 5 5 5 5 5 5 6 6 5 6 6 6 7 7 7 7 7 7 8 8 8 8 8 8 8 7 8 8 8 8 8 8 8 8 8 9 9 9 9 9 9 9 8 8 8 8 7 8 8 8 8 8 7 7 7 7 10 14 15 14 12 10 7 9 13 11 7 6 7 7 7 8 7 6 6 7 8 8 8 7 7 7 7
Wind_Direction
26 21 22 20 25 24 24 24 23 21 21 22 21 20 20 20 22 12 18 19 18 15 15 10 10 5 2 358 1 356 359 358 356 356 353 348 349 346 346 349 348 342 341 343 346 348 343 345 334 335 336 336 330 333 331 329 333 322 326 327 310 313 339 271 273 280 282 277 223 276 292 282 305 237 272 298 310 308 305 288 282 278 267 263 261
33 20 23 22 16 15 13 16 16 17 17 15 19 18 14 18 11 5 17 9 10 11 9 5 7 0 359 357 358 354 355 355 353 356 348 345 346 346 344 343 341 338 342 337 339 341 336 332 328 329 328 321 319 316 313 320 318 314 315 307 299 297 284 268 269 280 284 296 284 264 311 290 273 296 280 281 299 304 303 299 300 278 268 273 272
20 22 15 17 16 13 17 12 15 19 17 10 14 9 9 11 13 8 14 7 3 8 1 358 360 354 356 354 352 352 353 350 354 351 346 345 343 339 336 336 334 335 335 330 329 327 327 320 321 318 318 312 306 303 301 296 294 296 294 295 284 279 275 262 262 273 281 281 290 291 284 310 296 302 333 312 293 303 305 300 293 298 290 266 266
19 11 9 12 4 8 5 6 11 9 14 10 34 18 11 9 5 7 10 4 6 3 2 356 356 351 349 348 347 347 345 347 348 346 344 340 337 332 332 335 331 326 323 320 319 320 314 312 311 314 313 304 303 302 298 288 289 285 282 280 280 275 275 268 261 265 277 286 282 284 281 292 286 293 303 295 296 297 288 275 282 279 278 280 272
15 10 8 8 355 352 346 347 344 340 337 356 40 31 22 21 10 5 8 1 1 359 356 355 351 348 347 341 338 338 335 337 338 336 336 333 330 326 325 320 319 314 311 311 312 312 310 308 307 312 308 304 304 303 306 306 297 290 282 280 276 269 265 261 256 251 261 266 279 280 282 269 260 260 264 280 275 269 263 267 268 276 281 275 281
7 8 1 358 353 348 334 332 316 318 351 15 28 22 20 22 19 9 12 1 356 356 352 349 346 339 338 334 331 328 328 331 330 327 327 326 323 319 313 308 303 301 299 298 299 298 301 301 301 303 304 302 302 304 306 303 303 294 286 278 273 268 265 262 255 249 248 256 266 282 280 278 286 270 258 271 285 288 287 276 269 261 265 274 269
356 2 353 352 347 345 342 343 356 10 20 20 20 25 22 21 19 9 3 3 352 350 345 339 336 335 328 329 327 323 326 320 321 318 318 318 315 309 304 298 293 291 289 288 287 290 290 290 291 293 298 300 300 300 300 297 293 289 289 295 295 298 290 275 265 257 250 255 263 266 280 282 269 281 279 245 250 258 268 294 286 266 262 261 277
350 354 350 349 345 340 341 358 18 20 22 27 26 21 16 11 8 357 354 353 344 339 334 327 324 334 324 321 316 317 315 318 313 313 310 305 301 294 290 290 288 289 290 293 296 296 293 290 289 288 285 285 286 286 286 287 285 284 282 279 279 279 278 277 275 272 271 266 271 291 299 314 328 303 323 346 321 314 299 296 311 316 311 296 279
350 353 350 343 336 346 5 11 16 22 20 17 16 7 2 355 351 348 344 341 343 328 324 331 331 326 318 317 317 316 316 310 309 308 306 298 283 279 281 288 305 308 302 294 289 284 279 276 274 269 271 274 278 279 280 279 276 278 277 271 269 269 267 267 263 260 262 260 267 283 285 295 297 307 320 314 316 309 316 322 298 295 294 288 286
356 349 346 334 352 15 13 13 13 8 16 5 360 354 351 346 345 339 339 337 336 330 341 342 328 319 322 320 315 314 310 304 303 304 299 293 294 304 309 306 295 285 286 285 277 273 273 301 321 322 324 326 329 328 325 322 315 310 306 312 293 268 291 260 286 280 255 274 278 274 283 284 288 301 297 293 292 297 300 298 292 293 293 291 286
356 347 337 340 17 12 10 3 1 358 356 353 347 345 344 338 336 331 337 342 333 339 344 333 329 327 320 312 312 311 307 305 305 305 303 303 304 300 293 287 285 282 278 289 319 324 333 328 321 319 318 319 318 318 317 315 316 316 311 306 302 317 302 300 269 261 249 260 264 264 266 270 278 282 285 296 303 313 302 302 301 303 296 296 291
347 344 328 11 10 6 0 358 351 351 345 348 340 337 336 331 331 327 332 329 330 337 333 323 324 318 310 311 309 307 307 307 311 308 305 303 302 298 290 285 283 291 313 321 315 324 322 316 309 306 306 305 306 308 308 307 304 303 301 297 293 290 289 294 296 325 311 297 308 306 297 308 297 309 308 305 304 302 299 295 292 289 287 286 287
342 330 348 6 13 356 1 355 349 347 344 339 336 333 332 329 326 330 324 323 332 329 324 323 313 312 312 310 310 309 310 307 312 308 306 304 304 304 300 295 303 312 309 311 306 304 305 304 301 297 292 297 299 294 293 294 294 292 289 288 287 284 282 281 282 275 251 307 287 279 274 268 287 287 279 290 295 294 298 287 281 275 274 274 277
328 326 11 356 13 357 358 353 347 342 339 335 332 331 327 325 321 320 319 326 326 322 317 314 312 311 311 311 307 309 310 313 311 307 306 306 306 306 308 311 312 313 311 303 296 294 290 288 289 292 290 288 285 283 278 279 280 282 283 277 267 266 266 270 277 279 280 235 231 250 258 260 252 270 279 284 284 276 275 277 277 276 271 266 266
318 360 10 356 7 355 352 345 341 336 335 330 328 326 323 320 322 323 326 323 323 320 319 317 312 311 311 311 312 309 308 311 309 308 307 308 307 308 313 316 310 304 298 285 276 275 274 270 269 278 288 287 280 281 280 278 274 270 263 260 255 247 247 246 253 240 242 236 217 228 242 249 247 257 270 272 265 264 267 274 283 285 285 279 272
349 10 1 354 359 350 347 340 338 334 330 328 324 321 319 317 319 319 317 315 312 312 311 305 307 311 313 313 309 307 306 313 313 311 310 309 307 308 307 299 290 282 277 275 269 266 261 268 276 282 285 287 283 290 292 282 270 261 258 255 253 246 240 236 243 248 236 221 212 222 229 254 275 280 290 291 293 308 310 323 326 316 305 303 297
4 4 356 350 350 343 342 335 333 329 326 323 319 317 317 315 315 311 310 312 313 311 307 305 307 311 310 311 309 305 306 313 314 313 310 309 308 301 293 285 286 289 289 282 275 271 275 264 267 273 282 286 290 297 294 289 283 277 265 252 239 152 294 296 345 327 299 297 304 312 315 318 323 324 322 319 315 316 342 328 314 309 316 308 298
0 2 347 343 339 336 335 335 329 324 320 317 313 312 310 307 307 309 312 309 312 307 306 307 305 305 307 307 305 305 306 310 313 312 310 307 306 304 304 297 284 282 278 276 276 280 272 277 278 280 285 288 290 292 290 284 271 264 263 221 99 33 308 330 3 347 359 1 344 333 330 331 331 329 324 318 317 325 328 295 286 297 291 284 289
359 349 341 338 338 337 336 334 327 320 317 312 311 310 311 311 310 306 300 299 302 303 308 305 303 303 301 300 305 307 303 307 309 311 310 309 310 307 302 297 298 297 293 288 286 276 277 276 281 283 289 289 292 293 297 314 357 53 74 70 81 11 292 52 1 14 1 8 344 346 337 330 328 320 312 312 310 311 297 272 280 273 273 277 279
348 345 342 339 336 338 335 332 324 321 315 313 311 309 307 306 303 303 303 301 304 307 307 302 298 296 297 301 301 303 305 306 309 316 316 315 313 318 315 318 313 302 299 288 284 284 281 284 285 289 297 303 303 307 307 9 79 45 69 68 351 329 96 32 352 41 5 345 309 311 300 299 302 300 299 302 301 299 296 281 263 262 269 274 272
347 343 337 334 336 336 334 327 320 315 310 308 306 305 303 300 303 308 309 308 306 305 303 300 294 291 294 298 300 305 305 310 313 319 318 317 317 329 332 327 322 314 301 300 295 298 296 289 294 298 313 310 309 305 323 52 49 21 338 193 247 37 62 49 3 1 352 333 323 317 307 302 296 289 289 290 290 288 283 279 272 263 265 270 276
340 336 332 335 337 334 329 322 318 312 309 306 305 304 302 311 317 314 310 306 306 304 305 300 295 292 296 298 299 304 307 310 309 316 319 318 316 324 329 324 321 332 343 335 335 343 333 322 299 293 300 304 295 307 27 25 21 8 331 3 20 27 51 35 6 2 340 323 310 307 303 299 293 293 287 285 289 289 288 290 291 291 283 270 272
335 332 331 337 334 329 324 322 318 313 309 307 308 315 322 324 316 315 310 310 309 306 305 301 297 299 297 297 299 300 299 298 306 307 312 317 318 320 323 328 324 331 329 331 327 326 323 318 306 310 334 321 337 12 20 18 10 349 348 0 17 34 44 32 35 11 332 310 306 299 292 292 291 290 291 290 286 287 292 290 288 282 276 271 261
331 333 336 335 330 327 324 322 316 311 308 316 331 327 325 322 321 320 318 315 311 307 305 299 300 298 300 305 305 300 297 296 297 300 303 310 316 318 326 330 328 321 323 317 317 314 308 294 292 309 333 331 337 1 11 9 1 357 358 360 21 23 34 22 19 357 339 327 311 299 293 278 283 287 291 294 296 294 289 287 283 279 274 273 271
335 335 334 330 328 323 324 320 316 314 328 332 328 322 321 322 322 317 317 311 307 303 300 298 297 298 304 307 304 301 297 297 294 295 301 304 308 315 319 320 323 324 318 312 307 298 306 309 305 312 337 347 360 1 3 0 2 6 6 21 19 23 17 16 350 351 346 321 309 298 293 290 286 292 297 295 291 292 290 285 278 275 271 269 267
336 331 330 328 327 324 324 320 318 324 326 320 318 316 319 318 316 312 312 307 304 302 298 300 301 307 309 303 301 297 298 297 295 294 295 298 299 301 309 317 319 319 317 308 306 305 309 305 306 333 3 357 12 4 3 354 360 5 9 16 21 11 12 7 347 348 324 310 301 301 289 297 298 293 293 293 296 289 291 290 293 290 291 291 294
335 330 328 326 325 325 324 319 325 325 319 319 320 323 321 316 314 312 310 311 314 312 309 317 321 318 312 306 300 303 298 296 294 293 291 296 292 291 298 306 313 313 309 299 299 299 293 293 356 347 5 14 33 27 23 4 5 359 2 4 2 358 345 342 323 311 306 305 298 290 292 287 292 305 301 300 295 292 285 290 290 287 290 288 287
336 329 327 328 326 324 321 323 326 319 321 326 331 330 326 318 316 316 323 326 329 326 328 325 320 313 308 309 313 316 316 306 304 297 303 295 302 307 305 306 300 294 296 291 284 272 247 293 352 30 3 26 15 17 11 11 5 357 352 347 351 347 337 332 338 336 305 285 283 291 297 305 305 299 298 294 290 288 291 292 291 291 291 296 296
331 328 326 327 323 322 319 316 317 319 320 333 330 325 320 323 322 321 326 331 326 323 317 314 309 305 312 319 323 320 320 325 322 324 319 317 313 312 306 303 300 293 292 296 291 246 120 20 18 12 28 15 8 0 349 358 351 350 350 338 344 346 332 335 327 316 304 309 310 309 301 303 296 294 292 293 289 291 296 292 289 295 299 292 285
332 331 328 325 320 319 320 321 317 326 333 329 326 320 324 330 330 331 328 328 327 323 321 319 324 328 327 321 321 321 323 319 321 319 317 319 323 323 323 316 313 308 304 308 336 76 32 67 30 25 1 15 0 355 345 343 335 338 333 329 332 329 317 320 312 305 309 311 303 301 297 294 293 295 292 293 295 295 292 302 302 301 299 296 295
335 328 330 324 323 326 324 323 325 334 328 328 323 322 318 320 332 333 332 331 331 331 332 331 331 331 333 330 331 328 324 322 322 327 331 332 329 324 317 313 305 299 297 311 37 23 31 23 345 358 356 2 2 333 333 335 322 325 318 315 309 309 312 314 300 303 308 304 299 290 289 289 290 298 297 296 297 296 299 295 293 293 288 292 294
334 327 324 316 322 325 324 327 330 331 327 325 325 323 325 325 325 330 334 334 333 334 334 335 335 337 337 334 330 325 324 325 332 334 334 331 326 320 319 319 310 292 299 36 77 42 37 70 357 357 351 20 340 331 323 322 316 314 312 323 313 304 310 306 302 306 298 298 292 293 290 295 293 293 293 294 297 298 297 299 300 303 299 295 285
331 324 318 319 322 322 327 330 331 330 325 325 325 328 333 332 328 326 330 333 335 336 335 336 337 337 336 334 334 332 332 333 335 335 334 330 324 325 334 335 337 2 56 56 90 56 41 45 96 340 37 333 304 312 308 314 313 310 305 301 302 302 299 287 302 298 284 285 291 290 292 289 294 292 293 293 295 292 296 296 298 296 293 292 291
325 317 320 322 324 322 326 326 328 325 319 316 319 333 332 328 324 324 327 328 332 333 334 337 337 338 335 336 337 336 336 335 334 334 334 332 332 340 347 341 352 11 30 51 46 47 33 46 2 339 319 304 320 323 325 317 313 305 301 292 288 291 292 290 300 289 288 286 287 284 289 287 286 292 293 293 290 291 292 293 294 297 298 292 292
327 322 326 329 325 318 319 321 323 319 320 324 326 330 326 324 324 326 327 328 329 328 326 327 330 333 333 335 336 336 336 335 334 336 337 340 343 352 357 1 355 346 354 5 13 6 17 348 329 320 321 319 314 319 312 306 302 302 297 298 294 293 294 299 293 289 288 286 283 282 281 288 292 292 295 298 301 299 293 294 296 293 293 294 293
325 320 316 318 318 310 317 319 318 318 311 321 325 325 324 322 323 320 320 320 319 317 315 318 314 313 329 334 336 335 335 333 335 340 341 345 348 0 359 349 346 345 339 339 345 334 337 333 336 322 322 312 309 311 301 301 292 288 282 283 288 289 293 292 292 289 281 278 281 292 299 295 289 289 289 285 281 282 285 289 292 292 292 291 293
323 320 315 314 312 313 317 317 315 315 328 326 324 319 318 317 318 316 317 316 316 315 312 312 318 324 330 327 332 329 326 331 336 341 341 343 347 354 345 334 329 328 338 336 338 343 341 327 325 313 311 309 304 297 296 290 289 284 285 281 279 285 282 276 277 279 295 299 292 288 282 283 284 283 286 289 290 286 287 288 290 297 298 297 301
318 315 307 315 317 322 321 318 317 325 323 320 316 315 312 313 315 318 316 316 316 318 316 314 320 321 322 321 325 319 316 329 333 332 335 342 346 350 346 333 331 327 318 319 318 322 319 307 305 305 295 297 293 292 292 288 284 285 283 284 283 274 284 290 296 293 285 280 284 281 282 282 281 281 285 287 289 293 294 296 298 296 296 296 294
320 322 325 328 330 324 320 320 320 323 320 320 317 319 319 318 316 316 317 314 312 312 310 311 312 316 313 314 315 307 318 334 342 335 331 327 320 318 319 318 313 312 306 305 301 306 300 298 294 289 289 286 290 285 284 283 283 281 280 281 283 283 285 284 283 280 281 277 279 279 276 277 276 277 276 280 284 288 291 291 290 288 294 297 293
320 319 313 324 326 322 326 322 320 321 319 322 317 317 316 315 311 311 312 312 311 310 308 312 312 308 310 311 309 324 331 328 326 320 319 317 320 317 316 310 307 300 302 302 301 294 295 291 287 287 286 285 280 284 277 277 277 276 277 277 277 283 280 276 277 281 280 277 275 278 278 277 275 276 274 270 274 279 286 294 298 298 293 294 297
313 311 315 320 322 323 321 320 321 316 318 316 309 312 309 310 313 312 310 308 308 308 310 305 302 301 300 311 323 330 329 320 313 311 306 308 308 310 308 301 300 301 300 296 295 294 288 289 289 286 283 282 280 277 279 276 276 277 275 274 276 274 281 276 271 270 272 273 273 275 274 274 276 280 280 274 287 297 296 294 292 293 295 296 297
315 315 317 312 317 319 317 318 317 317 313 312 315 313 312 314 311 312 312 313 311 310 309 307 304 304 307 317 324 329 328 309 305 301 302 302 298 297 294 291 286 281 285 286 288 291 291 288 286 286 287 286 285 282 280 277 272 272 274 273 273 275 276 276 272 269 269 272 270 269 269 274 277 276 283 297 294 288 288 290 288 289 290 294 297
316 311 309 312 316 316 314 310 313 315 318 316 313 315 315 315 313 311 311 307 310 311 311 313 312 313 312 315 320 323 315 303 296 301 296 296 296 294 292 289 288 284 281 277 278 274 278 280 282 282 281 279 276 276 276 275 277 275 273 272 270 270 270 273 273 268 264 264 267 269 272 274 277 274 272 273 283 287 285 288 289 286 288 292 289
319 316 314 313 311 311 311 312 315 312 310 311 314 316 317 314 312 314 312 311 309 309 309 306 307 311 312 314 317 317 309 306 306 299 299 301 299 297 295 293 294 292 289 286 282 277 276 279 279 280 277 274 271 265 262 261 260 261 264 267 269 268 267 265 265 266 265 267 269 271 272 269 271 272 274 282 284 288 286 283 284 289 291 287 291
317 317 317 316 316 317 313 315 310 310 313 317 318 315 315 316 314 313 311 311 311 310 308 307 309 311 311 312 315 312 307 307 303 304 301 299 297 296 296 295 294 293 292 291 285 282 279 278 278 281 285 282 275 267 265 261 255 252 252 254 259 265 265 263 259 260 260 262 268 273 272 273 269 268 272 278 278 281 284 285 284 291 292 289 292
316 313 315 316 317 316 318 315 319 316 314 317 317 318 316 317 312 310 311 311 310 310 311 311 310 307 307 306 308 309 308 306 304 301 301 300 298 297 295 294 292 291 288 287 289 286 281 279 281 282 283 286 287 283 276 270 266 260 256 248 251 256 259 261 264 263 261 259 263 263 268 269 270 268 274 279 280 277 277 280 279 275 278 285 285
316 314 314 315 315 313 312 316 318 322 323 322 320 316 318 317 315 315 312 310 312 313 311 309 313 312 312 312 311 311 310 309 307 308 303 301 298 297 298 297 298 296 296 292 290 288 287 286 284 284 284 284 285 285 282 278 272 268 261 259 256 257 258 258 258 256 256 256 255 258 266 270 275 277 277 276 277 275 277 277 277 279 277 278 282
313 313 310 312 312 315 316 320 319 321 321 320 318 318 316 315 317 317 317 316 317 315 315 312 311 311 313 312 312 309 309 308 305 303 303 304 303 302 301 301 301 301 300 300 298 296 293 291 289 288 286 286 284 283 282 279 278 272 270 264 262 257 257 257 261 260 258 256 253 255 259 266 269 270 270 270 271 276 278 280 280 279 278 279 279
308 310 315 316 317 314 317 319 320 320 317 317 317 317 319 319 317 315 313 312 313 313 312 313 313 314 314 312 311 311 310 311 311 311 310 309 308 306 305 304 304 301 303 301 302 300 298 295 290 288 285 284 281 280 281 280 279 276 274 271 265 260 260 258 264 265 264 264 269 270 266 262 265 267 268 269 270 271 271 273 276 279 281 276 273
305 302 306 309 311 310 308 307 304 306 309 313 313 314 316 317 316 317 317 316 315 316 317 316 315 315 313 316 317 317 318 316 315 313 311 310 309 309 309 308 308 307 305 304 302 302 298 296 293 290 287 285 284 281 280 279 279 278 279 275 270 269 267 275 283 287 287 282 273 266 264 266 265 266 266 265 268 269 270 270 270 270 269 271 273
303 307 304 300 300 302 307 309 312 312 313 313 316 316 316 315 312 310 313 314 316 315 316 317 315 316 315 311 311 312 313 311 308 309 309 310 312 312 312 312 312 312 309 305 304 301 299 297 295 294 290 290 288 287 284 282 282 280 280 284 291 299 305 307 296 291 289 286 277 271 264 266 266 268 267 265 263 261 265 271 271 270 274 276 280